owner,sensor,date,latitude,longitude,vertical_datum,sea_water_practical_salinity,qcFlag 
SCCF RECON,ioos:station:SCCF:13:1,2013-03-01T00:00:00Z,26.5255,-82.0032,2.21,29.47,1111122 
SCCF RECON,ioos:station:SCCF:13:1,2013-03-01T01:00:00Z,26.5255,-82.0032,2.147,27.76,1111122 
SCCF RECON,ioos:station:SCCF:13:1,2013-03-01T02:00:00Z,26.5255,-82.0032,2.08,25.21,1111122 
SCCF RECON,ioos:station:SCCF:13:1,2013-03-01T03:00:00Z,26.5255,-82.0032,2.05,23.42,1111122 
SCCF RECON,ioos:station:SCCF:13:1,2013-03-01T04:00:00Z,26.5255,-82.0032,2.13,21.64,1111122 
SCCF RECON,ioos:station:SCCF:13:1,2013-03-01T05:00:00Z,26.5255,-82.0032,2.26,21.15,1111122 
SCCF RECON,ioos:station:SCCF:13:1,2013-03-01T06:00:00Z,26.5255,-82.0032,2.34,25.69,1111122 
SCCF RECON,ioos:station:SCCF:13:1,2013-03-01T07:00:00Z,26.5255,-82.0032,2.41,27.23,1111122 
SCCF RECON,ioos:station:SCCF:13:1,2013-03-01T08:00:00Z,26.5255,-82.0032,2.46,28.46,1111122 
SCCF RECON,ioos:station:SCCF:13:1,2013-03-01T09:00:00Z,26.5255,-82.0032,2.46,30.89,1111122 
SCCF RECON,ioos:station:SCCF:13:1,2013-03-01T10:00:00Z,26.5255,-82.0032,2.38,30.97,1111122 
SCCF RECON,ioos:station:SCCF:13:1,2013-03-01T11:00:00Z,26.5255,-82.0032,2.29,31.06,1111122 
SCCF RECON,ioos:station:SCCF:13:1,2013-03-01T12:00:00Z,26.5255,-82.0032,2.23,28.29,1111122 
SCCF RECON,ioos:station:SCCF:13:1,2013-03-01T13:00:00Z,26.5255,-82.0032,2.188,24.24,1111122 
SCCF RECON,ioos:station:SCCF:13:1,2013-03-01T14:00:00Z,26.5255,-82.0032,2.139,22.58,1111122 
SCCF RECON,ioos:station:SCCF:13:1,2013-03-01T15:00:00Z,26.5255,-82.0032,2.12,22.2,1111122 
SCCF RECON,ioos:station:SCCF:13:1,2013-03-01T16:00:00Z,26.5255,-82.0032,2.181,20.8,1111122 
SCCF RECON,ioos:station:SCCF:13:1,2013-03-01T17:00:00Z,26.5255,-82.0032,2.292,20.59,1111122 
SCCF RECON,ioos:station:SCCF:13:1,2013-03-01T18:00:00Z,26.5255,-82.0032,2.373,25.48,1111122 
SCCF RECON,ioos:station:SCCF:13:1,2013-03-01T19:00:00Z,26.5255,-82.0032,2.427,26.63,1111122 
SCCF RECON,ioos:station:SCCF:13:1,2013-03-01T20:00:00Z,26.5255,-82.0032,2.461,28.96,1111122 
SCCF RECON,ioos:station:SCCF:13:1,2013-03-01T21:00:00Z,26.5255,-82.0032,2.46,30.64,1111122 
SCCF RECON,ioos:station:SCCF:13:1,2013-03-01T22:00:00Z,26.5255,-82.0032,2.39,31.45,1111122 
SCCF RECON,ioos:station:SCCF:13:1,2013-03-01T23:00:00Z,26.5255,-82.0032,2.293,31.01,1111122 
SCCF RECON,ioos:station:SCCF:13:1,2013-03-02T00:00:00Z,26.5255,-82.0032,2.22,28.49,1111122 
SCCF RECON,ioos:station:SCCF:13:1,2013-03-02T01:00:00Z,26.5255,-82.0032,2.145,26.4,1111122 
SCCF RECON,ioos:station:SCCF:13:1,2013-03-02T02:00:00Z,26.5255,-82.0032,2.07,23.8,1111122 
SCCF RECON,ioos:station:SCCF:13:1,2013-03-02T03:00:00Z,26.5255,-82.0032,2.002,22.24,1111122 
SCCF RECON,ioos:station:SCCF:13:1,2013-03-02T04:00:00Z,26.5255,-82.0032,1.989,20.51,1111122 
SCCF RECON,ioos:station:SCCF:13:1,2013-03-02T05:00:00Z,26.5255,-82.0032,2.06,19.47,1111122 
SCCF RECON,ioos:station:SCCF:13:1,2013-03-02T06:00:00Z,26.5255,-82.0032,2.17,18.8,1111122 
SCCF RECON,ioos:station:SCCF:13:1,2013-03-02T07:00:00Z,26.5255,-82.0032,2.24,19.61,1111122 
SCCF RECON,ioos:station:SCCF:13:1,2013-03-02T08:00:00Z,26.5255,-82.0032,2.292,23.42,1111122 
SCCF RECON,ioos:station:SCCF:13:1,2013-03-02T09:00:00Z,26.5255,-82.0032,2.33,25.24,1111122 
SCCF RECON,ioos:station:SCCF:13:1,2013-03-02T10:00:00Z,26.5255,-82.0032,2.32,27.03,1111122 
SCCF RECON,ioos:station:SCCF:13:1,2013-03-02T11:00:00Z,26.5255,-82.0032,2.28,28.73,1111122 
SCCF RECON,ioos:station:SCCF:13:1,2013-03-02T12:00:00Z,26.5255,-82.0032,2.2,28.33,1111122 
SCCF RECON,ioos:station:SCCF:13:1,2013-03-02T13:00:00Z,26.5255,-82.0032,2.138,23.5,1111122 
SCCF RECON,ioos:station:SCCF:13:1,2013-03-02T14:00:00Z,26.5255,-82.0032,2.12,21.54,1111122 
SCCF RECON,ioos:station:SCCF:13:1,2013-03-02T15:00:00Z,26.5255,-82.0032,2.12,19.66,1111122 
SCCF RECON,ioos:station:SCCF:13:1,2013-03-02T16:00:00Z,26.5255,-82.0032,2.22,19.07,1111122 
SCCF RECON,ioos:station:SCCF:13:1,2013-03-02T17:00:00Z,26.5255,-82.0032,2.33,24.4,1111122 
SCCF RECON,ioos:station:SCCF:13:1,2013-03-02T18:00:00Z,26.5255,-82.0032,2.4,26.48,1111122 
SCCF RECON,ioos:station:SCCF:13:1,2013-03-02T19:00:00Z,26.5255,-82.0032,2.44,28.39,1111122 
SCCF RECON,ioos:station:SCCF:13:1,2013-03-02T20:00:00Z,26.5255,-82.0032,2.462,29.51,1111122 
SCCF RECON,ioos:station:SCCF:13:1,2013-03-02T21:00:00Z,26.5255,-82.0032,2.41,30.65,1111122 
SCCF RECON,ioos:station:SCCF:13:1,2013-03-02T22:00:00Z,26.5255,-82.0032,2.391,30.79,1111122 
SCCF RECON,ioos:station:SCCF:13:1,2013-03-02T23:00:00Z,26.5255,-82.0032,2.37,30.66,1111122 
SCCF RECON,ioos:station:SCCF:13:1,2013-03-03T00:00:00Z,26.5255,-82.0032,2.29,29.81,1111122 
SCCF RECON,ioos:station:SCCF:13:1,2013-03-03T01:00:00Z,26.5255,-82.0032,2.207,27.79,1111122 
SCCF RECON,ioos:station:SCCF:13:1,2013-03-03T02:00:00Z,26.5255,-82.0032,2.14,26.08,1111122 
SCCF RECON,ioos:station:SCCF:13:1,2013-03-03T03:00:00Z,26.5255,-82.0032,2.071,22.93,1111122 
SCCF RECON,ioos:station:SCCF:13:1,2013-03-03T04:00:00Z,26.5255,-82.0032,2.013,21.24,1111122 
SCCF RECON,ioos:station:SCCF:13:1,2013-03-03T05:00:00Z,26.5255,-82.0032,1.991,19.56,1111122 
SCCF RECON,ioos:station:SCCF:13:1,2013-03-03T06:00:00Z,26.5255,-82.0032,2.099,19.01,1111122 
SCCF RECON,ioos:station:SCCF:13:1,2013-03-03T07:00:00Z,26.5255,-82.0032,2.18,18.47,1111122 
SCCF RECON,ioos:station:SCCF:13:1,2013-03-03T08:00:00Z,26.5255,-82.0032,2.21,22.41,1111122 
SCCF RECON,ioos:station:SCCF:13:1,2013-03-03T09:00:00Z,26.5255,-82.0032,2.24,24.26,1111122 
SCCF RECON,ioos:station:SCCF:13:1,2013-03-03T10:00:00Z,26.5255,-82.0032,2.28,25.6,1111122 
SCCF RECON,ioos:station:SCCF:13:1,2013-03-03T11:00:00Z,26.5255,-82.0032,2.29,26.75,1111122 
SCCF RECON,ioos:station:SCCF:13:1,2013-03-03T12:00:00Z,26.5255,-82.0032,2.299,28.61,1111122 
SCCF RECON,ioos:station:SCCF:13:1,2013-03-03T13:00:00Z,26.5255,-82.0032,2.261,29.02,1111122 
SCCF RECON,ioos:station:SCCF:13:1,2013-03-03T14:00:00Z,26.5255,-82.0032,2.189,24.19,1111122 
SCCF RECON,ioos:station:SCCF:13:1,2013-03-03T15:00:00Z,26.5255,-82.0032,2.17,21.54,1111122 
SCCF RECON,ioos:station:SCCF:13:1,2013-03-03T16:00:00Z,26.5255,-82.0032,2.16,19.72,1111122 
SCCF RECON,ioos:station:SCCF:13:1,2013-03-03T17:00:00Z,26.5255,-82.0032,2.19,19.1,1111122 
SCCF RECON,ioos:station:SCCF:13:1,2013-03-03T18:00:00Z,26.5255,-82.0032,2.274,22.15,1111122 
SCCF RECON,ioos:station:SCCF:13:1,2013-03-03T19:00:00Z,26.5255,-82.0032,2.371,25.4,1111122 
SCCF RECON,ioos:station:SCCF:13:1,2013-03-03T20:00:00Z,26.5255,-82.0032,2.45,27.36,1111122 
SCCF RECON,ioos:station:SCCF:13:1,2013-03-03T21:00:00Z,26.5255,-82.0032,2.502,29.07,1111122 
SCCF RECON,ioos:station:SCCF:13:1,2013-03-03T22:00:00Z,26.5255,-82.0032,2.534,30.32,1111122 
SCCF RECON,ioos:station:SCCF:13:1,2013-03-03T23:00:00Z,26.5255,-82.0032,2.501,30.94,1111122 
SCCF RECON,ioos:station:SCCF:13:1,2013-03-04T00:00:00Z,26.5255,-82.0032,2.44,31.0,1111122 
SCCF RECON,ioos:station:SCCF:13:1,2013-03-04T01:00:00Z,26.5255,-82.0032,2.365,30.78,1111122 
SCCF RECON,ioos:station:SCCF:13:1,2013-03-04T02:00:00Z,26.5255,-82.0032,2.288,28.75,1111122 
SCCF RECON,ioos:station:SCCF:13:1,2013-03-04T03:00:00Z,26.5255,-82.0032,2.23,28.46,1111122 
SCCF RECON,ioos:station:SCCF:13:1,2013-03-04T04:00:00Z,26.5255,-82.0032,2.162,26.49,1111122 
SCCF RECON,ioos:station:SCCF:13:1,2013-03-04T05:00:00Z,26.5255,-82.0032,2.09,23.86,1111122 
SCCF RECON,ioos:station:SCCF:13:1,2013-03-04T06:00:00Z,26.5255,-82.0032,2.05,21.62,1111122 
SCCF RECON,ioos:station:SCCF:13:1,2013-03-04T07:00:00Z,26.5255,-82.0032,2.05,19.84,1111122 
SCCF RECON,ioos:station:SCCF:13:1,2013-03-04T08:00:00Z,26.5255,-82.0032,2.09,18.84,1111122 
SCCF RECON,ioos:station:SCCF:13:1,2013-03-04T09:00:00Z,26.5255,-82.0032,2.18,18.31,1111122 
SCCF RECON,ioos:station:SCCF:13:1,2013-03-04T10:00:00Z,26.5255,-82.0032,2.22,18.27,1111122 
SCCF RECON,ioos:station:SCCF:13:1,2013-03-04T11:00:00Z,26.5255,-82.0032,2.247,23.32,1111122 
SCCF RECON,ioos:station:SCCF:13:1,2013-03-04T12:00:00Z,26.5255,-82.0032,2.26,24.39,1111122 
SCCF RECON,ioos:station:SCCF:13:1,2013-03-04T13:00:00Z,26.5255,-82.0032,2.27,25.81,1111122 
SCCF RECON,ioos:station:SCCF:13:1,2013-03-04T14:00:00Z,26.5255,-82.0032,2.29,25.99,1111122 
SCCF RECON,ioos:station:SCCF:13:1,2013-03-04T15:00:00Z,26.5255,-82.0032,2.31,26.53,1111122 
SCCF RECON,ioos:station:SCCF:13:1,2013-03-04T16:00:00Z,26.5255,-82.0032,2.3,26.78,1111122 
SCCF RECON,ioos:station:SCCF:13:1,2013-03-04T17:00:00Z,26.5255,-82.0032,2.321,27.61,1111122 
SCCF RECON,ioos:station:SCCF:13:1,2013-03-04T18:00:00Z,26.5255,-82.0032,2.39,28.7,1111122 
SCCF RECON,ioos:station:SCCF:13:1,2013-03-04T19:00:00Z,26.5255,-82.0032,2.459,30.17,1111122 
SCCF RECON,ioos:station:SCCF:13:1,2013-03-04T20:00:00Z,26.5255,-82.0032,2.52,30.19,1111122 
SCCF RECON,ioos:station:SCCF:13:1,2013-03-04T21:00:00Z,26.5255,-82.0032,2.578,30.53,1111122 
SCCF RECON,ioos:station:SCCF:13:1,2013-03-04T22:00:00Z,26.5255,-82.0032,2.619,30.96,1111122 
SCCF RECON,ioos:station:SCCF:13:1,2013-03-04T23:00:00Z,26.5255,-82.0032,2.62,31.25,1111122 
SCCF RECON,ioos:station:SCCF:13:1,2013-03-05T00:00:00Z,26.5255,-82.0032,2.58,31.19,1111122 
SCCF RECON,ioos:station:SCCF:13:1,2013-03-05T01:00:00Z,26.5255,-82.0032,2.53,31.16,1111122 
SCCF RECON,ioos:station:SCCF:13:1,2013-03-05T02:00:00Z,26.5255,-82.0032,2.449,30.3,1111122 
SCCF RECON,ioos:station:SCCF:13:1,2013-03-05T03:00:00Z,26.5255,-82.0032,2.371,29.71,1111122 
SCCF RECON,ioos:station:SCCF:13:1,2013-03-05T04:00:00Z,26.5255,-82.0032,2.31,26.88,1111122 
SCCF RECON,ioos:station:SCCF:13:1,2013-03-05T05:00:00Z,26.5255,-82.0032,2.236,24.39,1111122 
SCCF RECON,ioos:station:SCCF:13:1,2013-03-05T06:00:00Z,26.5255,-82.0032,2.16,22.36,1111122 
SCCF RECON,ioos:station:SCCF:13:1,2013-03-05T07:00:00Z,26.5255,-82.0032,2.109,21.83,1111122 
SCCF RECON,ioos:station:SCCF:13:1,2013-03-05T08:00:00Z,26.5255,-82.0032,2.11,20.79,1111122 
SCCF RECON,ioos:station:SCCF:13:1,2013-03-05T09:00:00Z,26.5255,-82.0032,2.18,19.69,1111122 
SCCF RECON,ioos:station:SCCF:13:1,2013-03-05T10:00:00Z,26.5255,-82.0032,2.25,19.4,1111122 
SCCF RECON,ioos:station:SCCF:13:1,2013-03-05T11:00:00Z,26.5255,-82.0032,2.304,19.7,1111122 
SCCF RECON,ioos:station:SCCF:13:1,2013-03-05T12:00:00Z,26.5255,-82.0032,2.351,23.91,1111122 
SCCF RECON,ioos:station:SCCF:13:1,2013-03-05T13:00:00Z,26.5255,-82.0032,2.4,26.1,1111122 
SCCF RECON,ioos:station:SCCF:13:1,2013-03-05T14:00:00Z,26.5255,-82.0032,2.42,27.51,1111122 
SCCF RECON,ioos:station:SCCF:13:1,2013-03-05T15:00:00Z,26.5255,-82.0032,2.443,28.67,1111122 
SCCF RECON,ioos:station:SCCF:13:1,2013-03-05T16:00:00Z,26.5255,-82.0032,2.464,29.59,1111122 
SCCF RECON,ioos:station:SCCF:13:1,2013-03-05T17:00:00Z,26.5255,-82.0032,2.453,30.0,1111122 
SCCF RECON,ioos:station:SCCF:13:1,2013-03-05T18:00:00Z,26.5255,-82.0032,2.45,30.04,1111122 
SCCF RECON,ioos:station:SCCF:13:1,2013-03-05T19:00:00Z,26.5255,-82.0032,2.48,29.86,1111122 
SCCF RECON,ioos:station:SCCF:13:1,2013-03-05T20:00:00Z,26.5255,-82.0032,2.536,30.28,1111122 
SCCF RECON,ioos:station:SCCF:13:1,2013-03-05T21:00:00Z,26.5255,-82.0032,2.62,30.65,1111122 
SCCF RECON,ioos:station:SCCF:13:1,2013-03-05T22:00:00Z,26.5255,-82.0032,2.65,31.04,1111122 
SCCF RECON,ioos:station:SCCF:13:1,2013-03-05T23:00:00Z,26.5255,-82.0032,2.69,31.33,1111122 
SCCF RECON,ioos:station:SCCF:13:1,2013-03-06T00:00:00Z,26.5255,-82.0032,2.73,31.44,1111122 
SCCF RECON,ioos:station:SCCF:13:1,2013-03-06T01:00:00Z,26.5255,-82.0032,2.73,31.59,1111122 
SCCF RECON,ioos:station:SCCF:13:1,2013-03-06T02:00:00Z,26.5255,-82.0032,2.65,31.78,1111122 
SCCF RECON,ioos:station:SCCF:13:1,2013-03-06T03:00:00Z,26.5255,-82.0032,2.59,31.63,1111122 
SCCF RECON,ioos:station:SCCF:13:1,2013-03-06T04:00:00Z,26.5255,-82.0032,2.5,30.58,1111122 
SCCF RECON,ioos:station:SCCF:13:1,2013-03-06T05:00:00Z,26.5255,-82.0032,2.415,29.02,1111122 
SCCF RECON,ioos:station:SCCF:13:1,2013-03-06T06:00:00Z,26.5255,-82.0032,2.33,27.89,1111122 
SCCF RECON,ioos:station:SCCF:13:1,2013-03-06T07:00:00Z,26.5255,-82.0032,2.241,26.98,1111122 
SCCF RECON,ioos:station:SCCF:13:1,2013-03-06T08:00:00Z,26.5255,-82.0032,2.191,26.21,1111122 
SCCF RECON,ioos:station:SCCF:13:1,2013-03-06T09:00:00Z,26.5255,-82.0032,2.199,25.72,1111122 
SCCF RECON,ioos:station:SCCF:13:1,2013-03-06T10:00:00Z,26.5255,-82.0032,2.263,25.18,1111122 
SCCF RECON,ioos:station:SCCF:13:1,2013-03-06T11:00:00Z,26.5255,-82.0032,2.33,24.78,1111122 
SCCF RECON,ioos:station:SCCF:13:1,2013-03-06T12:00:00Z,26.5255,-82.0032,2.4,25.34,1111122 
SCCF RECON,ioos:station:SCCF:13:1,2013-03-06T13:00:00Z,26.5255,-82.0032,2.475,26.23,1111122 
SCCF RECON,ioos:station:SCCF:13:1,2013-03-06T14:00:00Z,26.5255,-82.0032,2.531,27.57,1111122 
SCCF RECON,ioos:station:SCCF:13:1,2013-03-06T15:00:00Z,26.5255,-82.0032,2.6,29.2,1111122 
SCCF RECON,ioos:station:SCCF:13:1,2013-03-06T16:00:00Z,26.5255,-82.0032,2.505,30.5,1111122 
SCCF RECON,ioos:station:SCCF:13:1,2013-03-06T17:00:00Z,26.5255,-82.0032,2.387,29.39,1111122 
SCCF RECON,ioos:station:SCCF:13:1,2013-03-06T18:00:00Z,26.5255,-82.0032,2.345,27.38,1111122 
SCCF RECON,ioos:station:SCCF:13:1,2013-03-06T19:00:00Z,26.5255,-82.0032,2.34,26.71,1111122 
SCCF RECON,ioos:station:SCCF:13:1,2013-03-06T20:00:00Z,26.5255,-82.0032,2.33,26.09,1111122 
SCCF RECON,ioos:station:SCCF:13:1,2013-03-06T21:00:00Z,26.5255,-82.0032,2.32,25.22,1111122 
SCCF RECON,ioos:station:SCCF:13:1,2013-03-06T22:00:00Z,26.5255,-82.0032,2.342,24.91,1111122 
SCCF RECON,ioos:station:SCCF:13:1,2013-03-06T23:00:00Z,26.5255,-82.0032,2.405,25.31,1111122 
SCCF RECON,ioos:station:SCCF:13:1,2013-03-07T00:00:00Z,26.5255,-82.0032,2.48,26.06,1111122 
SCCF RECON,ioos:station:SCCF:13:1,2013-03-07T01:00:00Z,26.5255,-82.0032,2.51,26.56,1111122 
SCCF RECON,ioos:station:SCCF:13:1,2013-03-07T02:00:00Z,26.5255,-82.0032,2.52,27.43,1111122 
SCCF RECON,ioos:station:SCCF:13:1,2013-03-07T03:00:00Z,26.5255,-82.0032,2.48,28.09,1111122 
SCCF RECON,ioos:station:SCCF:13:1,2013-03-07T04:00:00Z,26.5255,-82.0032,2.43,28.01,1111122 
SCCF RECON,ioos:station:SCCF:13:1,2013-03-07T05:00:00Z,26.5255,-82.0032,2.375,27.13,1111122 
SCCF RECON,ioos:station:SCCF:13:1,2013-03-07T06:00:00Z,26.5255,-82.0032,2.298,26.04,1111122 
SCCF RECON,ioos:station:SCCF:13:1,2013-03-07T07:00:00Z,26.5255,-82.0032,2.2,24.89,1111122 
SCCF RECON,ioos:station:SCCF:13:1,2013-03-07T08:00:00Z,26.5255,-82.0032,2.115,23.5,1111122 
SCCF RECON,ioos:station:SCCF:13:1,2013-03-07T09:00:00Z,26.5255,-82.0032,2.05,22.03,1111122 
SCCF RECON,ioos:station:SCCF:13:1,2013-03-07T10:00:00Z,26.5255,-82.0032,2.01,20.73,1111122 
SCCF RECON,ioos:station:SCCF:13:1,2013-03-07T11:00:00Z,26.5255,-82.0032,2.001,19.96,1111122 
SCCF RECON,ioos:station:SCCF:13:1,2013-03-07T12:00:00Z,26.5255,-82.0032,2.09,19.37,1111122 
SCCF RECON,ioos:station:SCCF:13:1,2013-03-07T13:00:00Z,26.5255,-82.0032,2.19,18.93,1111122 
SCCF RECON,ioos:station:SCCF:13:1,2013-03-07T14:00:00Z,26.5255,-82.0032,2.264,19.3,1111122 
SCCF RECON,ioos:station:SCCF:13:1,2013-03-07T15:00:00Z,26.5255,-82.0032,2.31,22.14,1111122 
SCCF RECON,ioos:station:SCCF:13:1,2013-03-07T16:00:00Z,26.5255,-82.0032,2.341,23.29,1111122 
SCCF RECON,ioos:station:SCCF:13:1,2013-03-07T17:00:00Z,26.5255,-82.0032,2.36,24.85,1111122 
SCCF RECON,ioos:station:SCCF:13:1,2013-03-07T18:00:00Z,26.5255,-82.0032,2.32,27.39,1111122 
SCCF RECON,ioos:station:SCCF:13:1,2013-03-07T19:00:00Z,26.5255,-82.0032,2.27,28.66,1111122 
SCCF RECON,ioos:station:SCCF:13:1,2013-03-07T20:00:00Z,26.5255,-82.0032,2.25,29.33,1111122 
SCCF RECON,ioos:station:SCCF:13:1,2013-03-07T21:00:00Z,26.5255,-82.0032,2.25,28.82,1111122 
SCCF RECON,ioos:station:SCCF:13:1,2013-03-07T22:00:00Z,26.5255,-82.0032,2.302,29.17,1111122 
SCCF RECON,ioos:station:SCCF:13:1,2013-03-07T23:00:00Z,26.5255,-82.0032,2.38,27.14,1111122 
SCCF RECON,ioos:station:SCCF:13:1,2013-03-08T00:00:00Z,26.5255,-82.0032,2.44,26.64,1111122 
SCCF RECON,ioos:station:SCCF:13:1,2013-03-08T01:00:00Z,26.5255,-82.0032,2.499,29.0,1111122 
SCCF RECON,ioos:station:SCCF:13:1,2013-03-08T02:00:00Z,26.5255,-82.0032,2.54,29.67,1111122 
SCCF RECON,ioos:station:SCCF:13:1,2013-03-08T03:00:00Z,26.5255,-82.0032,2.57,29.66,1111122 
SCCF RECON,ioos:station:SCCF:13:1,2013-03-08T04:00:00Z,26.5255,-82.0032,2.56,29.76,1111122 
SCCF RECON,ioos:station:SCCF:13:1,2013-03-08T05:00:00Z,26.5255,-82.0032,2.47,30.23,1111122 
SCCF RECON,ioos:station:SCCF:13:1,2013-03-08T06:00:00Z,26.5255,-82.0032,2.37,29.19,1111122 
SCCF RECON,ioos:station:SCCF:13:1,2013-03-08T07:00:00Z,26.5255,-82.0032,2.29,27.96,1111122 
SCCF RECON,ioos:station:SCCF:13:1,2013-03-08T08:00:00Z,26.5255,-82.0032,2.208,25.74,1111122 
SCCF RECON,ioos:station:SCCF:13:1,2013-03-08T09:00:00Z,26.5255,-82.0032,2.12,23.78,1111122 
SCCF RECON,ioos:station:SCCF:13:1,2013-03-08T10:00:00Z,26.5255,-82.0032,2.05,22.27,1111122 
SCCF RECON,ioos:station:SCCF:13:1,2013-03-08T11:00:00Z,26.5255,-82.0032,2.021,21.39,1111122 
SCCF RECON,ioos:station:SCCF:13:1,2013-03-08T12:00:00Z,26.5255,-82.0032,2.08,20.69,1111122 
SCCF RECON,ioos:station:SCCF:13:1,2013-03-08T13:00:00Z,26.5255,-82.0032,2.2,19.92,1111122 
SCCF RECON,ioos:station:SCCF:13:1,2013-03-08T14:00:00Z,26.5255,-82.0032,2.29,20.17,1111122 
SCCF RECON,ioos:station:SCCF:13:1,2013-03-08T15:00:00Z,26.5255,-82.0032,2.35,23.5,1111122 
SCCF RECON,ioos:station:SCCF:13:1,2013-03-08T16:00:00Z,26.5255,-82.0032,2.4,25.29,1111122 
SCCF RECON,ioos:station:SCCF:13:1,2013-03-08T17:00:00Z,26.5255,-82.0032,2.418,27.99,1111122 
SCCF RECON,ioos:station:SCCF:13:1,2013-03-08T18:00:00Z,26.5255,-82.0032,2.389,30.17,1111122 
SCCF RECON,ioos:station:SCCF:13:1,2013-03-08T19:00:00Z,26.5255,-82.0032,2.32,30.7,1111122 
SCCF RECON,ioos:station:SCCF:13:1,2013-03-08T20:00:00Z,26.5255,-82.0032,2.26,30.8,1111122 
SCCF RECON,ioos:station:SCCF:13:1,2013-03-08T21:00:00Z,26.5255,-82.0032,2.23,28.82,1111122 
SCCF RECON,ioos:station:SCCF:13:1,2013-03-08T22:00:00Z,26.5255,-82.0032,2.22,26.58,1111122 
SCCF RECON,ioos:station:SCCF:13:1,2013-03-08T23:00:00Z,26.5255,-82.0032,2.28,25.64,1111122 
SCCF RECON,ioos:station:SCCF:13:1,2013-03-09T00:00:00Z,26.5255,-82.0032,2.38,27.08,1111122 
SCCF RECON,ioos:station:SCCF:13:1,2013-03-09T01:00:00Z,26.5255,-82.0032,2.47,27.95,1111122 
SCCF RECON,ioos:station:SCCF:13:1,2013-03-09T02:00:00Z,26.5255,-82.0032,2.54,28.7,1111122 
SCCF RECON,ioos:station:SCCF:13:1,2013-03-09T03:00:00Z,26.5255,-82.0032,2.601,29.62,1111122 
SCCF RECON,ioos:station:SCCF:13:1,2013-03-09T04:00:00Z,26.5255,-82.0032,2.65,31.04,1111122 
SCCF RECON,ioos:station:SCCF:13:1,2013-03-09T05:00:00Z,26.5255,-82.0032,2.65,31.75,1111122 
SCCF RECON,ioos:station:SCCF:13:1,2013-03-09T06:00:00Z,26.5255,-82.0032,2.57,31.94,1111122 
SCCF RECON,ioos:station:SCCF:13:1,2013-03-09T07:00:00Z,26.5255,-82.0032,2.46,31.65,1111122 
SCCF RECON,ioos:station:SCCF:13:1,2013-03-09T08:00:00Z,26.5255,-82.0032,2.354,30.44,1111122 
SCCF RECON,ioos:station:SCCF:13:1,2013-03-09T09:00:00Z,26.5255,-82.0032,2.27,26.77,1111122 
SCCF RECON,ioos:station:SCCF:13:1,2013-03-09T10:00:00Z,26.5255,-82.0032,2.182,25.55,1111122 
SCCF RECON,ioos:station:SCCF:13:1,2013-03-09T11:00:00Z,26.5255,-82.0032,2.12,24.62,1111122 
SCCF RECON,ioos:station:SCCF:13:1,2013-03-09T12:00:00Z,26.5255,-82.0032,2.127,23.43,1111122 
SCCF RECON,ioos:station:SCCF:13:1,2013-03-09T13:00:00Z,26.5255,-82.0032,2.27,22.79,1111122 
SCCF RECON,ioos:station:SCCF:13:1,2013-03-09T14:00:00Z,26.5255,-82.0032,2.38,22.49,1111122 
SCCF RECON,ioos:station:SCCF:13:1,2013-03-09T15:00:00Z,26.5255,-82.0032,2.442,25.44,1111122 
SCCF RECON,ioos:station:SCCF:13:1,2013-03-09T16:00:00Z,26.5255,-82.0032,2.5,27.25,1111122 
SCCF RECON,ioos:station:SCCF:13:1,2013-03-09T17:00:00Z,26.5255,-82.0032,2.532,28.87,1111122 
SCCF RECON,ioos:station:SCCF:13:1,2013-03-09T18:00:00Z,26.5255,-82.0032,2.528,30.34,1111122 
SCCF RECON,ioos:station:SCCF:13:1,2013-03-09T19:00:00Z,26.5255,-82.0032,2.462,30.76,1111122 
SCCF RECON,ioos:station:SCCF:13:1,2013-03-09T20:00:00Z,26.5255,-82.0032,2.381,30.8,1111122 
SCCF RECON,ioos:station:SCCF:13:1,2013-03-09T21:00:00Z,26.5255,-82.0032,2.32,29.06,1111122 
SCCF RECON,ioos:station:SCCF:13:1,2013-03-09T22:00:00Z,26.5255,-82.0032,2.27,25.92,1111122 
SCCF RECON,ioos:station:SCCF:13:1,2013-03-09T23:00:00Z,26.5255,-82.0032,2.258,23.35,1111122 
SCCF RECON,ioos:station:SCCF:13:1,2013-03-10T00:00:00Z,26.5255,-82.0032,2.321,22.61,1111122 
SCCF RECON,ioos:station:SCCF:13:1,2013-03-10T01:00:00Z,26.5255,-82.0032,2.46,23.43,1111122 
SCCF RECON,ioos:station:SCCF:13:1,2013-03-10T02:00:00Z,26.5255,-82.0032,2.57,28.42,1111122 
SCCF RECON,ioos:station:SCCF:13:1,2013-03-10T03:00:00Z,26.5255,-82.0032,2.632,28.91,1111122 
SCCF RECON,ioos:station:SCCF:13:1,2013-03-10T04:00:00Z,26.5255,-82.0032,2.69,30.93,1111122 
SCCF RECON,ioos:station:SCCF:13:1,2013-03-10T05:00:00Z,26.5255,-82.0032,2.717,32.23,1111122 
SCCF RECON,ioos:station:SCCF:13:1,2013-03-10T06:00:00Z,26.5255,-82.0032,2.68,32.34,1111122 
SCCF RECON,ioos:station:SCCF:13:1,2013-03-10T07:00:00Z,26.5255,-82.0032,2.571,32.3,1111122 
SCCF RECON,ioos:station:SCCF:13:1,2013-03-10T08:00:00Z,26.5255,-82.0032,2.46,32.12,1111122 
SCCF RECON,ioos:station:SCCF:13:1,2013-03-10T09:00:00Z,26.5255,-82.0032,2.36,28.57,1111122 
SCCF RECON,ioos:station:SCCF:13:1,2013-03-10T10:00:00Z,26.5255,-82.0032,2.28,25.46,1111122 
SCCF RECON,ioos:station:SCCF:13:1,2013-03-10T11:00:00Z,26.5255,-82.0032,2.2,25.59,1111122 
SCCF RECON,ioos:station:SCCF:13:1,2013-03-10T12:00:00Z,26.5255,-82.0032,2.15,23.92,1111122 
SCCF RECON,ioos:station:SCCF:13:1,2013-03-10T13:00:00Z,26.5255,-82.0032,2.238,23.54,1111122 
SCCF RECON,ioos:station:SCCF:13:1,2013-03-10T14:00:00Z,26.5255,-82.0032,2.409,22.93,1111122 
SCCF RECON,ioos:station:SCCF:13:1,2013-03-10T15:00:00Z,26.5255,-82.0032,2.49,25.31,1111122 
SCCF RECON,ioos:station:SCCF:13:1,2013-03-10T16:00:00Z,26.5255,-82.0032,2.555,27.15,1111122 
SCCF RECON,ioos:station:SCCF:13:1,2013-03-10T17:00:00Z,26.5255,-82.0032,2.594,29.66,1111122 
SCCF RECON,ioos:station:SCCF:13:1,2013-03-10T18:00:00Z,26.5255,-82.0032,2.6,31.46,1111122 
SCCF RECON,ioos:station:SCCF:13:1,2013-03-10T19:00:00Z,26.5255,-82.0032,2.56,31.55,1111122 
SCCF RECON,ioos:station:SCCF:13:1,2013-03-10T20:00:00Z,26.5255,-82.0032,2.463,31.47,1111122 
SCCF RECON,ioos:station:SCCF:13:1,2013-03-10T21:00:00Z,26.5255,-82.0032,2.4,31.4,1111122 
SCCF RECON,ioos:station:SCCF:13:1,2013-03-10T22:00:00Z,26.5255,-82.0032,2.333,28.22,1111122 
SCCF RECON,ioos:station:SCCF:13:1,2013-03-10T23:00:00Z,26.5255,-82.0032,2.29,25.52,1111122 
SCCF RECON,ioos:station:SCCF:13:1,2013-03-11T00:00:00Z,26.5255,-82.0032,2.253,25.01,1111122 
SCCF RECON,ioos:station:SCCF:13:1,2013-03-11T01:00:00Z,26.5255,-82.0032,2.32,24.9,1111122 
SCCF RECON,ioos:station:SCCF:13:1,2013-03-11T02:00:00Z,26.5255,-82.0032,2.5,25.4,1111122 
SCCF RECON,ioos:station:SCCF:13:1,2013-03-11T03:00:00Z,26.5255,-82.0032,2.602,27.89,1111122 
SCCF RECON,ioos:station:SCCF:13:1,2013-03-11T04:00:00Z,26.5255,-82.0032,2.679,29.28,1111122 
SCCF RECON,ioos:station:SCCF:13:1,2013-03-11T05:00:00Z,26.5255,-82.0032,2.732,31.83,1111122 
SCCF RECON,ioos:station:SCCF:13:1,2013-03-11T06:00:00Z,26.5255,-82.0032,2.762,32.46,1111122 
SCCF RECON,ioos:station:SCCF:13:1,2013-03-11T07:00:00Z,26.5255,-82.0032,2.709,32.64,1111122 
SCCF RECON,ioos:station:SCCF:13:1,2013-03-11T08:00:00Z,26.5255,-82.0032,2.583,32.32,1111122 
SCCF RECON,ioos:station:SCCF:13:1,2013-03-11T09:00:00Z,26.5255,-82.0032,2.47,32.03,1111122 
SCCF RECON,ioos:station:SCCF:13:1,2013-03-11T10:00:00Z,26.5255,-82.0032,2.389,28.64,1111122 
SCCF RECON,ioos:station:SCCF:13:1,2013-03-11T11:00:00Z,26.5255,-82.0032,2.31,27.21,1111122 
SCCF RECON,ioos:station:SCCF:13:1,2013-03-11T12:00:00Z,26.5255,-82.0032,2.252,26.03,1111122 
SCCF RECON,ioos:station:SCCF:13:1,2013-03-11T13:00:00Z,26.5255,-82.0032,2.27,24.96,1111122 
SCCF RECON,ioos:station:SCCF:13:1,2013-03-11T14:00:00Z,26.5255,-82.0032,2.431,24.28,1111122 
SCCF RECON,ioos:station:SCCF:13:1,2013-03-11T15:00:00Z,26.5255,-82.0032,2.541,25.93,1111122 
SCCF RECON,ioos:station:SCCF:13:1,2013-03-11T16:00:00Z,26.5255,-82.0032,2.599,28.26,1111122 
SCCF RECON,ioos:station:SCCF:13:1,2013-03-11T17:00:00Z,26.5255,-82.0032,2.668,30.43,1111122 
SCCF RECON,ioos:station:SCCF:13:1,2013-03-11T18:00:00Z,26.5255,-82.0032,2.731,32.45,1111122 